[ hide orbit diagram ]
For accurate long-term ephemerides, please instead use our Horizons system.This orbit viewer was implemented using two-body methods, and hence should not be used for determining accurate long-term trajectories (over several years or decades) or planetary encounter circumstances.
Orbital Elements at Epoch 2459200.5 (2020-Dec-17.0) TDB
Reference: JPL 13 (heliocentric ecliptic J2000)
Element | Value | Uncertainty (1-sigma) | Units |
e | .1392362145114787 | 5.5085e-08 | |
a | 2.315698133453838 | 8.3729e-09 | au |
q | 1.993269091400428 | 1.3048e-07 | au |
i | 2.648495562709794 | 4.9341e-06 | deg |
node | 309.3738386865516 | 0.00010151 | deg |
peri | 68.1509686297025 | 0.00010263 | deg |
M | 209.0454884537807 | 1.5754e-05 | deg |
tp | 2459740.215563424216 (2022-Jun-09.71556342) | 5.7521e-05 | TDB |
period | 1287.126836041781 3.52 | 6.9809e-06 1.911e-08 | d yr |
n | .2796927155268435 | 1.5169e-09 | deg/d |
Q | 2.638127175507247 | 9.5388e-09 | au |
|
| | Orbit Determination Parameters
Additional Information
|
[ show covariance matrix ]
Physical Parameter Table
Parameter |
Symbol |
Value |
Units |
Sigma |
Reference |
Notes |
absolute magnitude |
H |
16.07 |
|
n/a |
E2021B10 |
|
|
58585 (1997 SX11) Discovered 1997-Sep-27 by Spacewatch at Kitt Peak |
Reference: 20030614/Numbers.arc | Last Updated: 2004-04-19 |
|
[ hide close-approach data ]
Close-Approach Data ...sorted by Date/Time (TDB)
|
Date/Time (TDB) |
Time Uncertainty (days_HH:MM) |
Body |
Nominal Distance (au) |
Minimum Distance (au) |
Maximum Distance (au) |
V-relative (km/s) |
V-infinity (km/s) |
JD (TDB) |
Time Uncertainty (minutes) |
Semi-major axis (km) |
Semi-minor axis (km) |
range-LOV angle (deg) |
N-sigma |
BP |
Orbit Ref. |
Reference |
Modified |
2032-Jan-02 08:51 |
00:04 |
Thisb |
0.0329316644611951 |
0.0329293533904629 |
0.0329339755558409 |
1.84190278143956 |
1.84190266903229 |
2463233.868808940 |
3.53916289264704 |
123.695483434358 |
29.5276731098406 |
-22.3529969318528 |
73176.4390744682 |
T |
13 |
CATAB v2.0f-lin.ifort 2020-May-20 11:37:59 |
2020-May-20 11:38 |
2184-Feb-28 17:39 |
00:01 |
Hebe |
0.0339358996019585 |
0.0339053207829721 |
0.033966478753371 |
6.41248770989153 |
6.41248768132407 |
2518808.235321349 |
1.13378309722663 |
1533.64385909671 |
41.1691095211468 |
-6.27110840849971 |
13860.4967557889 |
T |
13 |
CATAB v2.0f-lin.ifort 2020-May-20 11:37:59 |
2020-May-20 11:38 |
|
|